FW2178 Weather Reports


Display with metric or nautical units.
time (UTC)temp
F
wind
direction
speed
MPH
gust
MPH
rain 1hr
in
rain 24hr
in
rain mn
in
humidity
%
barometer
mb
20260510164502 56 108 0.0 0.0 0.00 0.00 0.00 78 1016.7
20260510164002 56 70 0.0 0.0 0.00 0.00 0.00 77 1016.6
20260510163502 56 147 0.0 0.0 0.00 0.00 0.00 77 1016.4
20260510163249 56 131 0.0 0.0 0.00 0.00 0.00 80 1016.2
20260510162502 55 127 0.0 0.0 0.00 0.00 0.00 78 1016.3
20260510162002 56 108 0.0 0.0 0.00 0.00 0.00 81 1016.1
20260510161504 55 145 0.0 0.0 0.00 0.00 0.00 78 1016.3
20260510161003 55 135 0.0 0.0 0.00 0.00 0.00 80 1016.4
20260510160813 55 132 0.0 0.0 0.00 0.00 0.00 83 1016.3
20260510160002 55 118 0.0 0.0 0.00 0.00 0.00 83 1016.2
20260510155806 54 140 0.0 0.0 0.00 0.00 0.00 86 1016.2
20260510155013 54 117 0.0 0.0 0.00 0.00 0.00 87 1016.3
20260510154503 54 117 0.0 0.0 0.00 0.00 0.00 87 1016.2
20260510154004 54 117 0.0 0.0 0.00 0.00 0.00 88 1015.8
20260510153502 54 117 0.0 0.0 0.00 0.00 0.00 88 1016.1
20260510153003 53 117 0.0 0.0 0.00 0.00 0.00 90 1016.1
20260510152809 53 117 0.0 0.0 0.00 0.00 0.00 90 1015.7
20260510152003 53 117 0.0 0.0 0.00 0.00 0.00 89 1016.3
20260510151502 53 119 0.0 0.0 0.00 0.00 0.00 90 1016.1
20260510151249 53 119 0.0 0.0 0.00 0.00 0.00 91 1016.4
20260510150503 52 119 0.0 0.0 0.00 0.00 0.00 92 1016.3
20260510150034 52 119 0.0 0.0 0.00 0.00 0.00 93 1016.5
20260510145002 51 119 0.0 0.0 0.00 0.00 0.00 95 1016.0
20260510144502 51 119 0.0 0.0 0.00 0.00 0.00 96 1016.4
20260510144003 51 118 0.0 0.0 0.00 0.00 0.00 95 1016.0
20260510143503 51 117 0.0 0.0 0.00 0.00 0.00 95 1015.9
20260510143002 51 123 0.0 0.0 0.00 0.00 0.00 96 1016.0
20260510142502 50 148 0.0 0.0 0.00 0.00 0.00 96 1016.4
20260510142003 50 148 0.0 0.0 0.00 0.00 0.00 96 1016.9
20260510141503 50 147 0.0 0.0 0.00 0.00 0.00 96 1016.1
20260510141002 49 159 0.0 0.0 0.00 0.00 0.00 96 1016.0
20260510140503 49 112 0.0 0.0 0.00 0.00 0.00 97 1015.6
20260510140003 49 128 0.0 0.0 0.00 0.00 0.00 97 1015.8
20260510135504 49 128 0.0 0.0 0.00 0.00 0.00 97 1015.9
20260510135248 49 128 0.0 0.0 0.00 0.00 0.00 97 1015.9
20260510134753 49 128 0.0 0.0 0.00 0.00 0.00 97 1015.7
20260510134253 49 128 0.0 0.0 0.00 0.00 0.00 98 1015.8
20260510133507 48 128 0.0 0.0 0.00 0.00 0.00 97 1016.0
20260510133006 48 128 0.0 0.0 0.00 0.00 0.00 97 1016.0
20260510132503 48 129 0.0 0.0 0.00 0.00 0.00 98 1016.1
20260510132004 49 129 0.0 0.0 0.00 0.00 0.00 98 1016.2
20260510131502 48 129 0.0 0.0 0.00 0.00 0.00 98 1016.1
20260510131002 48 129 0.0 0.0 0.00 0.00 0.00 98 1016.3
20260510130503 48 129 0.0 0.0 0.00 0.00 0.00 98 1016.0
20260510130248 48 129 0.0 0.0 0.00 0.00 0.00 98 1016.2
20260510125746 48 129 0.0 0.0 0.00 0.00 0.00 98 1016.2
20260510125002 48 129 0.0 0.0 0.00 0.00 0.00 98 1015.4
20260510124501 48 129 0.0 0.0 0.00 0.00 0.00 98 1015.9
20260510124003 48 129 0.0 0.0 0.00 0.00 0.00 98 1016.1
20260510123502 48 129 0.0 0.0 0.00 0.00 0.00 98 1015.9
20260510123002 48 129 0.0 0.0 0.00 0.00 0.00 98 1015.9
20260510122503 48 129 0.0 0.0 0.00 0.00 0.00 98 1015.9
20260510122306 48 129 0.0 0.0 0.00 0.00 0.00 98 1015.8
20260510121502 48 129 0.0 0.0 0.00 0.00 0.00 97 1016.0
20260510121002 48 129 0.0 0.0 0.00 0.00 0.00 97 1016.0
20260510120747 49 129 0.0 0.0 0.00 0.00 0.00 98 1015.9
20260510120004 48 129 0.0 0.0 0.00 0.00 0.00 98 1015.7
20260510115502 48 129 0.0 0.0 0.00 0.00 0.00 97 1015.7
20260510115002 48 129 0.0 0.0 0.00 0.00 0.00 97 1015.6
20260510114502 49 129 0.0 0.0 0.00 0.00 0.00 97 1015.6
20260510114002 49 129 0.0 0.0 0.00 0.00 0.00 97 1015.8
20260510113502 49 129 0.0 0.0 0.00 0.00 0.00 98 1015.7
20260510113002 49 129 0.0 0.0 0.00 0.00 0.00 98 1015.7
20260510112502 49 129 0.0 0.0 0.00 0.00 0.00 98 1015.8
20260510112001 49 129 0.0 0.0 0.00 0.00 0.00 97 1015.8
20260510111503 49 129 0.0 0.0 0.00 0.00 0.00 97 1015.6
20260510111242 49 129 0.0 0.0 0.00 0.00 0.00 97 1015.7
20260510110502 49 129 0.0 0.0 0.00 0.00 0.00 97 1015.3
20260510110002 49 129 0.0 0.0 0.00 0.00 0.00 97 1015.4
20260510105502 49 129 0.0 0.0 0.00 0.00 0.00 97 1015.6
20260510105002 49 129 0.0 0.0 0.00 0.00 0.00 97 1015.6
20260510104503 49 129 0.0 0.0 0.00 0.00 0.00 97 1015.3
20260510104252 49 129 0.0 0.0 0.00 0.00 0.00 97 1015.0
20260510103502 49 129 0.0 0.0 0.00 0.00 0.00 97 1015.3
20260510103004 49 129 0.0 0.0 0.00 0.00 0.00 97 1015.3
20260510102502 49 129 0.0 0.0 0.00 0.00 0.00 96 1015.3
20260510102002 49 129 0.0 0.0 0.00 0.00 0.00 96 1015.6
20260510101502 49 129 0.0 0.0 0.00 0.00 0.00 96 1015.3
20260510101002 49 129 0.0 0.0 0.00 0.00 0.00 96 1015.3
20260510100502 50 129 0.0 0.0 0.00 0.00 0.00 96 1015.0
20260510100003 50 129 0.0 0.0 0.00 0.00 0.00 96 1015.0
20260510095502 50 129 0.0 0.0 0.00 0.00 0.00 96 1015.1
20260510095001 50 129 0.0 0.0 0.00 0.00 0.00 95 1015.1
20260510094550 50 129 0.0 0.0 0.00 0.00 0.00 95 1015.1
20260510094531 50 129 0.0 0.0 0.00 0.00 0.00 95 1015.4
20260510093502 50 129 0.0 0.0 0.00 0.00 0.00 95 1014.8
20260510093002 50 129 0.0 0.0 0.00 0.00 0.00 94 1015.0
20260510092502 50 129 0.0 0.0 0.00 0.00 0.00 94 1014.8
20260510092002 50 129 0.0 0.0 0.00 0.00 0.00 94 1015.0
20260510091504 50 129 0.0 0.0 0.00 0.00 0.00 94 1015.0
20260510091002 50 129 0.0 0.0 0.00 0.00 0.00 93 1014.7
20260510090502 51 129 0.0 0.0 0.00 0.00 0.00 93 1015.0
20260510090312 51 129 0.0 0.0 0.00 0.00 0.00 93 1014.7
20260510085502 51 129 0.0 0.0 0.00 0.00 0.00 93 1014.9
20260510085004 51 129 0.0 0.0 0.00 0.00 0.00 93 1014.7
20260510084503 51 129 0.0 0.0 0.00 0.00 0.00 93 1014.5
20260510084002 51 129 0.0 0.0 0.00 0.00 0.00 92 1014.8
20260510083502 51 129 0.0 0.0 0.00 0.00 0.00 92 1014.6
20260510083002 51 129 0.0 0.0 0.00 0.00 0.00 93 1014.6
20260510082502 51 129 0.0 0.0 0.00 0.00 0.00 93 1014.5
20260510082002 51 129 0.0 0.0 0.00 0.00 0.00 93 1014.7
20260510081503 52 129 0.0 0.0 0.00 0.00 0.00 93 1014.8
20260510081002 52 129 0.0 0.0 0.00 0.00 0.00 93 1014.8
20260510080502 52 129 0.0 0.0 0.00 0.00 0.00 93 1014.7
20260510080002 52 129 0.0 0.0 0.00 0.00 0.00 93 1014.9
20260510075502 52 129 0.0 0.0 0.00 0.00 0.00 93 1014.8
20260510075008 52 129 0.0 0.0 0.00 0.00 0.00 92 1014.7
20260510074504 52 129 0.0 0.0 0.00 0.00 0.00 92 1014.7
20260510074002 52 129 0.0 0.0 0.00 0.00 0.00 92 1014.7
20260510073503 52 129 0.0 0.0 0.00 0.00 0.00 92 1014.9
20260510073002 53 129 0.0 0.0 0.00 0.00 0.00 92 1014.6
20260510072502 53 129 0.0 0.0 0.00 0.00 0.00 92 1014.7
20260510072103 53 129 0.0 0.0 0.00 0.00 0.00 92 1014.7
20260510072043 53 129 0.0 0.0 0.00 0.00 0.00 92 1014.8
20260510071106 53 129 0.0 0.0 0.00 0.00 0.00 92 1014.5
20260510071042 53 129 0.0 0.0 0.00 0.00 0.00 92 1014.4
20260510070249 53 129 0.0 0.0 0.00 0.00 0.00 92 1014.5
20260510065503 53 129 0.0 0.0 0.00 0.00 0.00 92 1014.8
20260510065245 53 129 0.0 0.0 0.00 0.00 0.00 91 1014.4
20260510064502 53 129 0.0 0.0 0.00 0.00 0.00 91 1014.4
20260510064002 53 129 0.0 0.0 0.00 0.00 0.00 91 1014.5
20260510063502 53 129 0.0 0.0 0.00 0.00 0.00 91 1014.8
20260510063001 53 129 0.0 0.0 0.00 0.00 0.00 91 1014.7
20260510062503 53 129 0.0 0.0 0.00 0.00 0.00 90 1014.6
20260510062001 53 129 0.0 0.0 0.00 0.00 0.00 91 1014.7
20260510061818 54 129 0.0 0.0 0.00 0.00 0.00 90 1014.7
20260510061002 54 129 0.0 0.0 0.00 0.00 0.00 90 1014.7
20260510060502 54 129 0.0 0.0 0.00 0.00 0.00 90 1014.6
20260510060003 54 129 0.0 0.0 0.00 0.00 0.00 90 1014.6
20260510055503 54 129 0.0 0.0 0.00 0.00 0.00 90 1014.5
20260510055249 54 129 0.0 0.0 0.00 0.00 0.00 89 1014.5
20260510054502 54 129 0.0 0.0 0.00 0.00 0.00 88 1014.4
20260510054002 54 129 0.0 0.0 0.00 0.00 0.00 88 1014.6
20260510053503 55 129 0.0 0.0 0.00 0.00 0.00 87 1014.4
20260510053002 55 129 0.0 0.0 0.00 0.00 0.00 87 1014.6
20260510052502 55 129 0.0 0.0 0.00 0.00 0.00 86 1014.4
20260510052002 55 129 0.0 0.0 0.00 0.00 0.00 86 1014.3
20260510051502 55 129 0.0 0.0 0.00 0.00 0.00 85 1014.5
20260510051006 55 129 0.0 0.0 0.00 0.00 0.00 85 1014.6
20260510050449 55 129 0.0 0.0 0.00 0.00 0.00 86 1014.6
20260510045950 55 129 0.0 0.0 0.00 0.00 0.00 86 1014.5
20260510045451 55 129 0.0 0.0 0.00 0.00 0.00 86 1014.4
20260510044950 55 129 0.0 0.0 0.00 0.00 0.00 85 1014.5
20260510044450 55 129 0.0 0.0 0.00 0.00 0.00 86 1014.6
20260510043950 55 129 0.0 0.0 0.00 0.00 0.00 85 1014.7
20260510043451 55 128 0.0 0.0 0.00 0.00 0.00 85 1014.6
20260510042950 56 128 0.0 0.0 0.00 0.00 0.00 84 1014.4
20260510042449 56 128 0.0 0.0 0.00 0.00 0.00 84 1014.4
20260510041949 56 128 0.0 0.0 0.00 0.00 0.00 83 1014.5
20260510041449 56 128 0.0 0.0 0.00 0.00 0.00 83 1014.2
20260510040950 56 128 0.0 0.0 0.00 0.00 0.00 82 1014.4
20260510040449 57 128 0.0 0.0 0.00 0.00 0.00 82 1014.6
20260510040242 57 128 0.0 0.0 0.00 0.00 0.00 82 1014.4
20260510035449 57 128 0.0 0.0 0.00 0.00 0.00 82 1014.4
20260510034951 57 128 0.0 0.0 0.00 0.00 0.00 82 1014.2
20260510034449 57 128 0.0 0.0 0.00 0.00 0.00 82 1014.4
20260510034239 57 128 0.0 0.0 0.00 0.00 0.00 82 1014.1
20260510033449 57 128 0.0 0.0 0.00 0.00 0.00 83 1014.3
20260510032950 57 128 0.0 0.0 0.00 0.00 0.00 83 1014.5
20260510032449 58 128 0.0 0.0 0.00 0.00 0.00 82 1014.3
20260510032239 58 128 0.0 0.0 0.00 0.00 0.00 82 1014.5
20260510031449 58 128 0.0 0.0 0.00 0.00 0.00 80 1014.6
20260510030948 58 128 0.0 0.0 0.00 0.00 0.00 82 1014.5
20260510030449 58 128 0.0 0.0 0.00 0.00 0.00 80 1014.7
20260510025949 59 128 0.0 0.0 0.00 0.00 0.00 81 1014.7
20260510025448 59 128 0.0 0.0 0.00 0.00 0.00 80 1014.6
20260510025120 60 128 0.0 0.0 0.00 0.00 0.00 77 1014.8
20260510025115 60 128 0.0 0.0 0.00 0.00 0.00 75 1014.7
20260510025049 59 128 0.0 0.0 0.00 0.00 0.00 78 1014.6
20260510023448 60 128 0.0 0.0 0.00 0.00 0.00 77 1014.8
20260510022948 60 128 0.0 0.0 0.00 0.00 0.00 76 1014.7
20260510022742 61 128 0.0 0.0 0.00 0.00 0.00 75 1014.9
20260510021948 61 128 0.0 0.0 0.00 0.00 0.00 79 1014.9
20260510021448 62 128 0.0 0.0 0.00 0.00 0.00 74 1014.7
20260510020947 62 128 0.0 0.0 0.00 0.00 0.00 75 1015.0
20260510020449 62 128 0.0 0.0 0.00 0.00 0.00 77 1014.9
20260510015949 62 128 0.0 0.0 0.00 0.00 0.00 73 1015.2
20260510015448 62 128 0.0 0.0 0.00 0.00 0.00 74 1015.3
20260510014948 63 128 0.0 0.0 0.00 0.00 0.00 75 1015.2
20260510014449 63 128 0.0 0.0 0.00 0.00 0.00 76 1015.1
20260510014035 64 128 0.0 1.0 0.00 0.00 0.00 73 1015.3
20260510014014 63 128 0.0 0.0 0.00 0.00 0.00 72 1015.4
20260510012948 64 128 0.0 1.0 0.00 0.00 0.00 71 1015.6
20260510012447 64 128 0.0 0.0 0.00 0.00 0.00 71 1015.6
20260510011948 65 128 0.0 0.0 0.00 0.00 0.00 68 1015.6
20260510011449 64 128 0.0 0.0 0.00 0.00 0.00 68 1015.7
20260510010953 64 128 0.0 0.0 0.00 0.00 0.00 68 1015.9
20260510010450 65 128 0.0 0.0 0.00 0.00 0.00 72 1015.6
20260510005948 64 130 0.0 0.0 0.00 0.00 0.00 69 1015.8
20260510005449 65 130 0.0 0.0 0.00 0.00 0.00 73 1015.9
20260510004948 65 130 0.0 0.0 0.00 0.00 0.00 74 1015.7
20260510004447 65 129 0.0 0.0 0.00 0.00 0.00 72 1015.8
20260510003948 65 117 0.0 0.0 0.00 0.00 0.00 68 1015.9
20260510003449 65 143 0.0 0.0 0.00 0.00 0.00 67 1016.0
20260510002950 65 155 0.0 0.0 0.00 0.00 0.00 67 1015.8
20260510002450 66 138 0.0 0.0 0.00 0.00 0.00 67 1015.9
20260510001949 66 141 0.0 0.0 0.00 0.00 0.00 62 1015.9
20260510001448 66 139 0.0 0.0 0.00 0.00 0.00 62 1016.0
20260510000948 66 96 0.0 0.0 0.00 0.00 0.00 68 1016.2
20260510000737 66 115 0.0 0.0 0.00 0.00 0.00 68 1016.4
20260510000236 66 115 0.0 0.0 0.00 0.00 0.00 66 1016.3
20260509235448 66 113 0.0 0.0 0.00 0.00 0.00 70 1016.4
20260509234948 66 108 0.0 0.0 0.00 0.00 0.00 61 1016.5
20260509234448 66 99 0.0 0.0 0.00 0.00 0.00 60 1016.4
20260509233948 66 122 0.0 0.0 0.00 0.00 0.00 59 1016.3
20260509233449 66 140 0.0 0.0 0.00 0.00 0.00 60 1016.7
20260509232949 66 145 0.0 1.0 0.00 0.00 0.00 61 1016.8
20260509232448 66 134 0.0 1.0 0.00 0.00 0.00 64 1016.7
20260509232030 66 100 0.0 0.0 0.00 0.00 0.00 57 1016.5
20260509232013 66 122 0.0 0.0 0.00 0.00 0.00 65 1016.7
20260509230949 66 134 0.0 0.0 0.00 0.00 0.00 60 1016.9
20260509230449 66 152 0.0 0.0 0.00 0.00 0.00 58 1016.9
20260509230034 66 143 0.0 0.0 0.00 0.00 0.00 63 1017.1
20260509230015 66 87 0.0 0.0 0.00 0.00 0.00 59 1017.0
20260509224951 66 142 0.0 0.0 0.00 0.00 0.00 56 1017.2
20260509224739 66 110 0.0 0.0 0.00 0.00 0.00 61 1017.3
20260509223947 66 126 0.0 0.0 0.00 0.00 0.00 60 1017.3
20260509223449 66 127 0.0 0.0 0.00 0.00 0.00 57 1017.3
20260509222949 66 116 0.0 0.0 0.00 0.00 0.00 57 1017.3
20260509222449 66 160 0.0 0.0 0.00 0.00 0.00 60 1017.2
20260509221949 66 92 0.0 0.0 0.00 0.00 0.00 61 1017.3
20260509221743 67 121 0.0 0.0 0.00 0.00 0.00 58 1017.3
20260509220950 66 151 0.0 0.0 0.00 0.00 0.00 60 1017.4
20260509220449 66 173 0.0 0.0 0.00 0.00 0.00 60 1017.5
20260509215948 66 150 0.0 0.0 0.00 0.00 0.00 60 1017.4
20260509215740 66 161 0.0 0.0 0.00 0.00 0.00 60 1017.6
20260509214949 67 142 0.0 0.0 0.00 0.00 0.00 61 1017.3
20260509214451 67 156 0.0 0.0 0.00 0.00 0.00 60 1017.6
20260509213947 66 136 0.0 0.0 0.00 0.00 0.00 56 1017.3
20260509213436 66 161 0.0 0.0 0.00 0.00 0.00 58 1017.9
20260509212937 66 128 0.0 0.0 0.00 0.00 0.00 58 1017.7
20260509212437 66 156 0.0 0.0 0.00 0.00 0.00 61 1017.7
20260509211936 66 132 0.0 0.0 0.00 0.00 0.00 57 1017.8
20260509211437 67 119 0.0 0.0 0.00 0.00 0.00 57 1017.7
20260509210939 66 99 0.0 0.0 0.00 0.00 0.00 60 1017.8
20260509210436 66 96 0.0 0.0 0.00 0.00 0.00 57 1018.0
20260509205936 66 92 0.0 0.0 0.00 0.00 0.00 59 1017.9
20260509205438 66 126 0.0 0.0 0.00 0.00 0.00 62 1017.9
20260509204936 66 101 0.0 0.0 0.00 0.00 0.00 63 1017.9
20260509204436 66 131 0.0 0.0 0.00 0.00 0.00 61 1017.6
20260509203935 66 109 0.0 0.0 0.00 0.00 0.00 59 1017.8
20260509203437 66 148 0.0 0.0 0.00 0.00 0.00 59 1018.1
20260509202937 66 123 0.0 0.0 0.00 0.00 0.00 62 1018.0
20260509202437 65 133 0.0 0.0 0.00 0.00 0.00 61 1018.0
20260509202010 65 149 0.0 0.0 0.00 0.00 0.00 63 1018.2
20260509202001 65 137 0.0 0.0 0.00 0.00 0.00 60 1018.0
20260509200936 65 165 0.0 0.0 0.00 0.00 0.00 62 1018.4
20260509200733 65 166 0.0 0.0 0.00 0.00 0.00 61 1018.5
20260509195937 65 153 0.0 0.0 0.00 0.00 0.00 62 1018.5
20260509195437 65 167 0.0 0.0 0.00 0.00 0.00 66 1018.5
20260509194935 65 108 0.0 0.0 0.00 0.00 0.00 66 1018.5
20260509194729 64 107 0.0 0.0 0.00 0.00 0.00 64 1018.6
20260509193935 64 189 0.0 0.0 0.00 0.00 0.00 63 1018.8
20260509193441 64 112 0.0 0.0 0.00 0.00 0.00 65 1018.6
20260509192937 64 111 0.0 0.0 0.00 0.00 0.00 65 1019.0
20260509192436 64 142 0.0 0.0 0.00 0.00 0.00 65 1018.8
20260509191937 64 79 0.0 0.0 0.00 0.00 0.00 66 1018.9
20260509191439 64 153 0.0 0.0 0.00 0.00 0.00 66 1019.1
20260509190936 64 84 0.0 0.0 0.00 0.00 0.00 66 1019.1
20260509190437 64 127 0.0 0.0 0.00 0.00 0.00 65 1019.1
20260509185939 64 158 0.0 0.0 0.00 0.00 0.00 66 1019.2
20260509185439 63 142 0.0 0.0 0.00 0.00 0.00 67 1019.1
20260509184936 63 196 0.0 0.0 0.00 0.00 0.00 68 1019.1
20260509184437 63 89 0.0 0.0 0.00 0.00 0.00 68 1019.0
20260509184223 63 147 0.0 0.0 0.00 0.00 0.00 69 1019.0
20260509183743 62 136 0.0 0.0 0.00 0.00 0.00 68 1019.5
20260509183227 62 136 0.0 0.0 0.00 0.00 0.00 69 1019.3
20260509182737 62 142 0.0 0.0 0.00 0.00 0.00 70 1019.2
20260509181936 62 153 0.0 0.0 0.00 0.00 0.00 70 1019.3
20260509181729 62 172 0.0 0.0 0.00 0.00 0.00 69 1019.3
20260509180938 62 171 0.0 0.0 0.00 0.00 0.00 68 1019.3
20260509180436 62 116 0.0 0.0 0.00 0.00 0.00 66 1019.3
20260509175937 62 121 0.0 0.0 0.00 0.00 0.00 63 1019.2
20260509175437 61 70 0.0 0.0 0.00 0.00 0.00 64 1019.3
20260509175219 61 108 0.0 0.0 0.00 0.00 0.00 67 1019.5
20260509174436 61 128 0.0 0.0 0.00 0.00 0.00 66 1019.7
20260509173936 60 134 0.0 0.0 0.00 0.00 0.00 67 1019.3
20260509173737 60 138 0.0 0.0 0.00 0.00 0.00 68 1019.7
20260509172936 60 132 0.0 0.0 0.00 0.00 0.00 69 1019.5
20260509172722 60 144 0.0 0.0 0.00 0.00 0.00 71 1019.5
20260509171937 59 138 0.0 0.0 0.00 0.00 0.00 74 1019.8
20260509171437 59 130 0.0 0.0 0.00 0.00 0.00 73 1019.6
20260509170937 59 116 0.0 0.0 0.00 0.00 0.00 74 1019.6
20260509170435 58 67 0.0 0.0 0.00 0.00 0.00 72 1019.9
20260509165936 58 118 0.0 0.0 0.00 0.00 0.00 74 1019.6
20260509165438 58 137 0.0 0.0 0.00 0.00 0.00 74 1019.8